Precipitable_Water
0.77 0.89 0.91 0.96 0.99 1.01 0.99 0.90 0.88 0.87 0.89 0.88 0.99 0.95 0.94 0.95 0.92 0.95 0.99 0.99 0.96 0.93 0.95 0.97 0.98 0.95 0.97 0.98 0.94 0.98 0.93 0.90
0.61 0.81 0.96 0.96 1.02 1.01 0.99 0.88 0.90 0.90 0.88 0.80 0.83 0.86 0.90 0.93 0.97 0.98 0.99 1.02 1.01 0.96 0.94 0.94 0.94 0.88 0.87 0.92 0.94 0.91 0.89 0.95
0.44 0.70 0.90 0.91 0.98 1.01 1.00 0.97 0.89 0.89 0.90 0.91 0.86 0.89 0.97 0.97 1.03 1.03 1.03 1.02 1.03 1.02 0.97 0.94 0.94 0.90 0.89 0.89 0.90 0.88 0.90 0.95
0.30 0.65 0.82 0.93 0.99 1.01 1.02 0.98 0.99 0.95 0.89 0.97 1.02 1.01 0.98 0.98 0.96 0.96 0.98 1.03 1.01 0.99 0.99 0.98 0.97 0.95 0.87 0.89 0.91 0.88 0.81 0.94
0.23 0.33 0.78 0.88 1.00 1.07 1.04 1.01 1.00 1.04 1.03 0.93 0.85 0.80 0.76 0.79 0.83 0.91 0.96 1.01 0.99 0.97 0.97 0.98 0.98 0.99 0.93 0.89 0.93 0.91 0.92 0.82
0.25 0.30 0.42 0.97 0.97 0.98 1.00 1.02 0.97 1.00 1.05 1.02 0.94 0.84 0.80 0.86 0.91 0.88 0.92 0.96 1.00 0.99 0.98 0.96 0.96 0.97 0.99 0.97 0.95 0.92 0.93 0.87
0.29 0.29 0.33 0.45 0.97 1.13 1.04 1.04 1.06 1.05 0.99 1.00 0.98 0.90 0.88 0.87 0.87 0.86 0.88 0.93 0.97 1.01 1.00 0.99 0.98 0.98 0.95 0.95 0.97 0.97 0.94 0.95
0.35 0.28 0.28 0.35 0.52 1.03 1.17 1.15 1.08 1.06 0.95 0.92 0.91 0.89 0.85 0.81 0.82 0.83 0.86 0.89 0.91 0.89 0.92 0.95 0.95 0.95 0.96 0.98 0.99 0.98 0.96 0.95
0.43 0.35 0.29 0.32 0.39 0.49 1.04 1.17 1.13 1.16 1.07 0.90 0.92 0.85 0.85 0.86 0.87 0.87 0.86 0.86 0.86 0.88 0.90 0.95 0.96 0.98 1.00 0.99 0.97 1.00 1.01 0.97
0.44 0.48 0.42 0.38 0.37 0.44 0.47 0.53 0.62 0.88 1.03 1.04 1.01 0.99 1.02 0.97 0.96 0.97 0.94 0.94 0.94 0.97 0.97 0.97 0.98 1.00 1.01 1.01 0.96 0.94 1.01 0.98
0.45 0.48 0.52 0.50 0.50 0.46 0.51 0.52 0.52 0.56 0.65 0.79 0.89 0.96 1.10 1.19 1.21 1.14 1.09 1.05 1.02 1.04 1.06 1.05 1.04 1.05 1.04 1.05 1.00 0.99 0.98 0.99
0.49 0.49 0.51 0.54 0.56 0.61 0.62 0.57 0.56 0.57 0.61 0.66 0.71 0.74 0.76 0.76 0.82 0.92 0.98 1.02 1.07 1.14 1.18 1.18 1.13 1.11 1.11 1.08 1.03 1.03 0.98 0.97
0.50 0.56 0.55 0.53 0.56 0.61 0.67 0.69 0.71 0.75 0.82 0.83 0.79 0.78 0.75 0.68 0.65 0.70 0.92 1.03 1.16 1.22 1.23 1.22 1.20 1.20 1.17 1.11 1.03 1.05 1.00 0.96
0.51 0.52 0.55 0.58 0.61 0.63 0.67 0.72 0.76 0.81 0.86 0.99 1.07 0.98 0.90 0.85 0.80 0.79 0.82 0.96 1.14 1.17 1.14 1.14 1.13 1.13 1.14 1.12 1.10 1.08 1.06 1.03
0.55 0.53 0.54 0.58 0.61 0.64 0.67 0.70 0.75 0.79 0.80 0.82 0.86 0.89 0.84 0.70 0.74 0.78 0.83 0.84 0.91 1.01 1.06 1.08 1.12 1.11 1.11 1.13 1.10 1.06 1.06 1.05
0.55 0.56 0.57 0.59 0.62 0.67 0.70 0.70 0.72 0.72 0.72 0.71 0.70 0.74 0.78 0.81 0.83 0.83 0.80 0.81 0.84 0.90 1.01 1.05 1.10 1.15 1.14 1.13 1.14 1.11 1.09 1.07
0.58 0.62 0.62 0.62 0.62 0.62 0.65 0.68 0.68 0.71 0.68 0.69 0.70 0.66 0.65 0.72 0.82 0.86 0.92 0.87 0.94 1.02 0.95 1.02 1.07 1.10 1.14 1.16 1.15 1.12 1.14 1.11
0.57 0.59 0.62 0.63 0.62 0.64 0.62 0.63 0.68 0.68 0.65 0.62 0.61 0.61 0.60 0.60 0.70 0.83 0.82 0.89 0.96 0.96 1.07 1.15 1.13 1.15 1.15 1.20 1.27 1.28 1.23 1.21
0.56 0.58 0.59 0.60 0.60 0.59 0.59 0.61 0.63 0.67 0.64 0.60 0.59 0.59 0.58 0.60 0.65 0.72 0.75 0.81 0.82 0.87 1.02 1.15 1.24 1.31 1.33 1.31 1.36 1.43 1.41 1.36
Wind_Speed
36 36 35 35 34 32 29 28 26 25 23 22 19 19 19 19 19 19 19 19 19 18 17 16 16 16 15 15 15 15 14 15
40 38 38 38 38 35 33 31 29 28 26 25 24 21 21 21 20 21 21 21 22 21 20 19 19 19 19 18 17 18 18 16
38 41 41 40 41 40 36 34 33 31 30 28 27 26 24 23 23 23 24 23 24 24 24 23 23 23 22 22 21 20 20 20
39 40 42 42 43 42 40 37 36 35 33 31 30 28 28 27 26 26 26 26 26 26 27 27 27 26 26 26 26 25 23 23
42 40 41 44 45 45 43 41 39 38 37 36 35 33 31 30 30 29 28 29 28 29 29 29 29 29 29 29 28 28 27 26
35 38 37 42 45 47 46 45 42 40 39 39 38 37 35 32 32 32 32 32 32 32 32 32 32 31 31 31 31 31 31 29
34 36 38 38 40 47 47 46 44 42 40 41 41 39 37 37 36 35 35 35 34 35 35 36 35 34 33 33 33 33 33 32
36 40 40 36 34 40 45 46 46 46 44 43 42 42 41 40 39 39 38 37 37 37 37 37 37 36 35 34 34 34 33 34
33 40 41 40 38 37 40 44 45 47 47 45 44 43 42 43 42 41 42 41 41 40 38 38 39 38 37 36 35 35 34 34
28 28 33 37 38 39 40 41 43 44 46 46 46 46 46 45 45 44 44 43 42 42 41 40 40 40 39 37 37 36 36 36
30 26 26 31 34 37 40 42 42 41 41 44 45 46 47 48 47 47 46 45 44 44 43 42 42 41 40 40 38 37 37 37
25 28 28 28 29 31 36 40 41 41 42 43 44 45 45 46 48 49 49 48 47 46 45 44 43 43 42 41 41 39 39 38
24 25 28 30 29 30 30 32 36 38 39 40 42 43 43 44 46 46 47 47 47 47 47 46 45 45 44 43 42 41 40 40
24 25 28 29 28 30 32 32 31 32 34 36 37 38 39 40 42 42 42 44 45 46 46 47 46 46 46 45 44 43 43 42
24 26 28 30 31 31 32 33 34 34 33 34 34 34 35 36 37 39 40 42 43 44 46 46 47 47 47 47 46 45 45 45
25 23 23 27 28 30 33 36 37 37 37 36 36 35 35 35 35 36 39 41 42 44 45 47 48 49 49 49 48 47 47 46
23 20 25 26 23 27 30 34 37 38 39 40 41 41 41 41 41 41 40 39 40 42 44 46 48 49 51 52 50 49 49 48
25 25 26 24 31 34 34 35 38 39 40 40 41 41 42 43 44 44 43 44 44 43 44 46 48 50 51 52 52 50 49 48
27 28 30 32 34 35 35 38 40 41 42 43 44 45 45 45 45 46 46 45 45 45 47 47 48 50 52 51 51 51 50 48
Wind_Direction
235 233 231 229 226 226 226 225 225 223 223 224 227 227 227 227 227 227 227 228 229 229 233 234 235 239 242 245 249 253 258 263
236 235 231 230 227 226 226 226 227 226 226 226 229 231 229 231 231 231 233 234 234 235 238 240 241 243 246 249 252 254 259 264
237 232 231 231 228 227 226 228 228 229 230 232 233 234 235 236 237 238 237 239 240 241 243 244 245 247 249 250 252 257 260 262
236 234 231 230 229 228 228 228 231 231 232 234 236 237 240 240 240 241 242 243 244 245 246 247 249 249 251 253 253 255 260 261
238 234 233 230 230 230 229 231 232 234 233 234 236 239 241 242 243 245 246 247 248 248 249 249 251 251 253 254 256 256 258 262
240 230 232 233 231 232 233 233 233 233 235 236 238 240 244 246 246 247 249 250 251 251 251 251 252 253 255 255 256 257 258 260
241 234 232 233 234 234 234 234 233 233 235 237 239 241 244 246 248 249 251 252 254 254 254 252 253 254 255 257 258 258 258 260
241 237 233 232 234 233 233 234 235 235 236 238 240 244 244 246 248 250 252 253 254 256 255 253 252 254 255 256 257 258 259 259
248 240 237 231 233 234 232 235 237 238 238 241 243 245 246 248 250 252 253 255 256 256 256 254 253 253 255 256 257 258 259 260
249 246 233 230 230 231 233 236 240 241 242 244 245 247 248 249 251 253 254 255 256 255 255 254 253 253 254 255 256 258 259 260
241 243 239 235 236 234 233 236 240 244 245 246 247 249 250 250 252 252 253 255 257 256 254 254 253 253 253 254 256 258 259 261
240 239 239 238 238 239 238 238 241 245 247 248 249 250 252 252 253 254 254 255 255 255 254 253 252 251 252 253 254 257 259 262
237 238 239 238 240 240 241 241 242 245 248 249 249 251 252 254 256 257 254 252 253 253 253 253 252 250 251 253 254 256 259 262
242 242 242 242 241 243 244 246 246 245 246 249 251 252 255 257 257 257 256 253 253 253 252 252 252 250 251 253 254 256 259 261
248 250 249 247 245 246 247 248 249 249 251 252 253 256 256 258 258 257 257 256 254 253 253 253 252 252 252 253 254 257 259 260
254 254 257 253 249 249 251 251 252 252 252 253 255 256 259 259 259 259 259 258 257 255 254 254 254 253 254 254 255 256 259 259
259 259 255 253 254 252 253 255 255 256 256 258 259 260 261 262 262 262 261 261 260 258 256 256 255 255 256 255 255 256 257 258
261 260 262 262 257 257 259 261 260 257 258 261 263 262 262 263 263 263 263 262 261 261 260 258 257 256 256 256 255 256 256 255
266 263 265 266 265 264 263 262 262 260 260 262 264 264 264 264 263 263 263 262 262 262 261 261 260 258 256 255 254 254 253 253